Showing default

USA 159, 26880

Orbit data source: Space-Track

USA 159, 26880 is a payload satellite owned by USAF SMC (US) in GEO that was launched on Mon, 06 Aug 2001 UTC via a TITAN 402B/IUS launch vehicle from the Air Force Eastern Test Range (AFETR). Payloads include a variety of satellites, spacecraft, and rockets equipped with specific instruments for various scientific and technological missions. These include communications satellites like Starlink; space stations such as the ISS; scientific satellites like the Hubble; Earth observation satellites from companies like Planet Labs, Umbra, and HawkEye 360; GPS; miniature CubeSats for education and research; and military/defense satellites.

Loading next visibility...
USA 159 details
Identifier
26880, 2001-033A
Orbit
GEO
Last TLE update1 day ago
Origin
Flag of USUSAF SMC (US)
ManufacturerTRW
MissionOperational Defense Classified
Bus & MotorDSP B18, MRE-4
Mass~2,360 kg wet, ~2,200 kg dry
Launch date (UTC)
2001-08-06 (23 years ago)
Launch vehicle
TITAN 402B/IUS
Launch site
Air Force Eastern Test Range (AFETR)
Object type
Payload
Rocket body
Debris
Shape & HBRCyl + 1 Pan, 11.5 m
Radar Cross Section31.528 m², Large (>1 m²)

Expand to show TLE details & history

TLE from 1 day ago
0 USA 159
1 26880U 01033A   24336.22445417 -.00000279  00000-0  00000+0 0  9996
2 26880  12.2519  20.2263 0001257 260.0821 182.0035  1.00271701 25976
Epoch: 2024-12-01T05:23Z
Definitive object data (Epoch: 2024-12-01T05:23:12.84Z)
Latitude12.15698°
Longitude-49.25756°
Altitude35,790.815 km
Speed3.074 km/s
True Right ascension06h 48m 26s
True Declination12° 08' 42"
Sunlit
Object was in daylight at TLE epoch
Visualization TLE readout
Latitude2.20276°
Longitude38.62284°
Altitude35,786.058 km
Speed3.075 km/s
Apparent Right ascension13h 03m 34s
Apparent Declination-3° 32' 28"
Sunlit
Object is in daylight
Visualization observer readout
Local Sidereal Time08:54:55
Azimuth111.431° ESE
Elevation18.532°
Doppler factor1
Orbital elements
Apogee altitude35,792.919 km
Perigee altitude35,782.318 km
Semi-major axis42,165.755 km
Eccentricity0.0001257
Inclination12.2519°
RAAN20.2263°
Arg. of periapsis260.0821°
True anomaly182.003°
Mean anomaly182.0035°
Eccentric anomaly182.00325°
Mean motion0.25067 °/min
BSTARUnknown
Orbital period1436.15 mins
Loading historical data...
26880 neighbors
Authenticating...
Loading maneuver chart data...
Loading historical data...
Loading historical data...
Loading historical data...
Loading historical data...
Loading historical data...
Loading historical data...
Loading historical data...
Other satellites on launch #33 in the year 2001 (2001-08-06 UTC)

USA 159 Visibility forecast

Observer location: undefined°, undefined

Span
Click to sort rows by Start time (UTC) header in descending order
Start Az.
Max El. time (UTC)
Max El. Az.
Max El.
End time (UTC)
End Az.
251 mins2024-12-02 11:08:14.571Z111.446° ESE2024-12-02 11:08:14.571Z111.446° ESE17.625°2024-12-02 15:19:14.571Z121.04° SE
856 mins2024-12-02 20:52:14.571Z119.16° SE2024-12-03 05:20:14.571Z103.194° ESE23.646°2024-12-03 11:08:14.571Z111.629° ESE
|